| time (UTC) | temp F | wind direction | speed MPH | gust MPH | rain 1hr in | rain 24hr in | rain mn in | humidity % | barometer mb |
| 20260906060046 | 77 | 0.0 | 0.0 | 0.00 | 0.00 | 0.00 | 41 | 991.9 | |
| 20260906055046 | 75 | 0.0 | 0.0 | 0.00 | 0.00 | 0.00 | 42 | 991.9 | |
| 20260906053045 | 73 | 0.0 | 0.0 | 0.00 | 0.00 | 0.00 | 45 | 992.0 | |
| 20260906052045 | 73 | 0.0 | 0.0 | 0.00 | 0.00 | 0.00 | 45 | 992.0 | |
| 20260906051045 | 71 | 0.0 | 0.0 | 0.00 | 0.00 | 0.00 | 46 | 991.9 | |
| 20260906050045 | 71 | 0.0 | 0.0 | 0.00 | 0.00 | 0.00 | 47 | 991.8 | |
| 20260906045045 | 70 | 0.0 | 0.0 | 0.00 | 0.00 | 0.00 | 50 | 991.7 | |
| 20260906044045 | 68 | 0.0 | 0.0 | 0.00 | 0.00 | 0.00 | 58 | 991.4 | |
| 20260906043046 | 69 | 0.0 | 0.0 | 0.00 | 0.00 | 0.00 | 57 | 991.4 | |
| 20260906042045 | 68 | 0.0 | 0.0 | 0.00 | 0.00 | 0.00 | 57 | 991.1 | |
| 20260906041045 | 68 | 0.0 | 0.0 | 0.00 | 0.00 | 0.00 | 57 | 991.0 | |
| 20260906040046 | 68 | 0.0 | 0.0 | 0.00 | 0.00 | 0.00 | 58 | 990.9 | |
| 20260906035045 | 68 | 0.0 | 0.0 | 0.00 | 0.00 | 0.00 | 58 | 990.6 | |
| 20260906034045 | 68 | 0.0 | 0.0 | 0.00 | 0.00 | 0.00 | 56 | 990.7 | |
| 20260906030045 | 67 | 0.0 | 0.0 | 0.00 | 0.00 | 0.00 | 58 | 990.5 | |
| 20260906024045 | 70 | 0.0 | 0.0 | 0.00 | 0.00 | 0.00 | 53 | 990.1 | |
| 20260906023045 | 70 | 0.0 | 0.0 | 0.00 | 0.00 | 0.00 | 53 | 990.2 | |
| 20260906022047 | 70 | 0.0 | 0.0 | 0.00 | 0.00 | 0.00 | 53 | 990.1 | |
| 20260906021045 | 70 | 0.0 | 0.0 | 0.00 | 0.00 | 0.00 | 50 | 990.2 | |
| 20260906015046 | 70 | 0.0 | 0.0 | 0.00 | 0.00 | 0.00 | 50 | 990.1 | |
| 20260906014045 | 71 | 0.0 | 0.0 | 0.00 | 0.00 | 0.00 | 51 | 990.0 | |
| 20260906013045 | 71 | 0.0 | 0.0 | 0.00 | 0.00 | 0.00 | 49 | 990.0 | |
| 20260906010046 | 70 | 0.0 | 0.0 | 0.00 | 0.00 | 0.00 | 51 | 990.1 | |
| 20260906005046 | 72 | 0.0 | 0.0 | 0.00 | 0.00 | 0.00 | 50 | 990.0 | |
| 20260906004045 | 71 | 0.0 | 0.0 | 0.00 | 0.00 | 0.00 | 50 | 990.1 | |
| 20260906003045 | 71 | 0.0 | 0.0 | 0.00 | 0.00 | 0.00 | 53 | 990.1 | |
| 20260906002045 | 72 | 0.0 | 0.0 | 0.00 | 0.00 | 0.00 | 52 | 989.9 | |
| 20260906001045 | 73 | 0.0 | 0.0 | 0.00 | 0.00 | 0.00 | 49 | 989.8 | |
| 20260905235045 | 73 | 0.0 | 0.0 | 0.00 | 0.00 | 0.00 | 51 | 989.8 | |
| 20260905234044 | 73 | 0.0 | 0.0 | 0.00 | 0.00 | 0.00 | 52 | 989.7 | |
| 20260905233045 | 73 | 0.0 | 0.0 | 0.00 | 0.00 | 0.00 | 50 | 990.0 | |
| 20260905232045 | 73 | 0.0 | 0.0 | 0.00 | 0.00 | 0.00 | 50 | 989.9 | |
| 20260905231044 | 73 | 0.0 | 0.0 | 0.00 | 0.00 | 0.00 | 50 | 990.0 | |
| 20260905230044 | 74 | 0.0 | 0.0 | 0.00 | 0.00 | 0.00 | 48 | 990.0 | |
| 20260905225045 | 74 | 0.0 | 0.0 | 0.00 | 0.00 | 0.00 | 46 | 990.0 | |
| 20260905224044 | 75 | 0.0 | 0.0 | 0.00 | 0.00 | 0.00 | 46 | 990.0 | |
| 20260905223045 | 76 | 0.0 | 0.0 | 0.00 | 0.00 | 0.00 | 43 | 989.9 | |
| 20260905222045 | 76 | 0.0 | 0.0 | 0.00 | 0.00 | 0.00 | 43 | 990.0 | |
| 20260905221044 | 76 | 0.0 | 0.0 | 0.00 | 0.00 | 0.00 | 43 | 989.9 | |
| 20260905220044 | 76 | 0.0 | 0.0 | 0.00 | 0.00 | 0.00 | 42 | 989.8 | |
| 20260905215045 | 78 | 0.0 | 0.0 | 0.00 | 0.00 | 0.00 | 41 | 989.9 | |
| 20260905213044 | 77 | 0.0 | 0.0 | 0.00 | 0.00 | 0.00 | 42 | 989.7 | |
| 20260905211045 | 78 | 0.0 | 0.0 | 0.00 | 0.00 | 0.00 | 41 | 989.7 | |
| 20260905210044 | 78 | 0.0 | 0.0 | 0.00 | 0.00 | 0.00 | 40 | 989.6 | |
| 20260905204044 | 78 | 0.0 | 0.0 | 0.00 | 0.00 | 0.00 | 40 | 989.7 | |
| 20260905203045 | 78 | 0.0 | 0.0 | 0.00 | 0.00 | 0.00 | 39 | 989.8 | |
| 20260905201045 | 78 | 0.0 | 0.0 | 0.00 | 0.00 | 0.00 | 40 | 989.7 | |
| 20260905200047 | 78 | 0.0 | 0.0 | 0.00 | 0.00 | 0.00 | 39 | 989.7 | |
| 20260905195044 | 79 | 0.0 | 0.0 | 0.00 | 0.00 | 0.00 | 38 | 989.7 | |
| 20260905194044 | 79 | 0.0 | 0.0 | 0.00 | 0.00 | 0.00 | 38 | 989.7 | |
| 20260905193045 | 80 | 0.0 | 0.0 | 0.00 | 0.00 | 0.00 | 37 | 989.8 | |
| 20260905192047 | 80 | 0.0 | 0.0 | 0.00 | 0.00 | 0.00 | 36 | 989.9 | |
| 20260905191045 | 81 | 0.0 | 0.0 | 0.00 | 0.00 | 0.00 | 35 | 989.9 | |
| 20260905190045 | 81 | 0.0 | 0.0 | 0.00 | 0.00 | 0.00 | 35 | 989.9 | |
| 20260905185045 | 82 | 0.0 | 0.0 | 0.00 | 0.00 | 0.00 | 34 | 989.8 | |
| 20260905184044 | 82 | 0.0 | 0.0 | 0.00 | 0.00 | 0.00 | 34 | 989.9 | |
| 20260905183045 | 82 | 0.0 | 0.0 | 0.00 | 0.00 | 0.00 | 35 | 989.8 | |
| 20260905182046 | 83 | 0.0 | 0.0 | 0.00 | 0.00 | 0.00 | 32 | 989.8 | |
| 20260905181044 | 84 | 0.0 | 0.0 | 0.00 | 0.00 | 0.00 | 32 | 989.8 | |
| 20260905175044 | 84 | 0.0 | 0.0 | 0.00 | 0.00 | 0.00 | 35 | 989.5 | |
| 20260905173044 | 87 | 0.0 | 0.0 | 0.00 | 0.00 | 0.00 | 30 | 989.3 | |
| 20260905171044 | 88 | 0.0 | 0.0 | 0.00 | 0.00 | 0.00 | 30 | 989.3 | |
| 20260905170044 | 91 | 0.0 | 0.0 | 0.00 | 0.00 | 0.00 | 30 | 989.2 | |
| 20260905165045 | 91 | 0.0 | 0.0 | 0.00 | 0.00 | 0.00 | 25 | 989.1 | |
| 20260905164045 | 93 | 0.0 | 0.0 | 0.00 | 0.00 | 0.00 | 24 | 989.3 | |
| 20260905161044 | 10 | 0.0 | 0.0 | 0.00 | 0.00 | 0.00 | 19 | 989.5 | |
| 20260905160044 | 10 | 0.0 | 0.0 | 0.00 | 0.00 | 0.00 | 17 | 989.6 | |
| 20260905155044 | 10 | 0.0 | 0.0 | 0.00 | 0.00 | 0.00 | 17 | 989.6 | |
| 20260905154044 | 10 | 0.0 | 0.0 | 0.00 | 0.00 | 0.00 | 18 | 989.6 | |
| 20260905153044 | 10 | 0.0 | 0.0 | 0.00 | 0.00 | 0.00 | 17 | 989.6 | |
| 20260905152044 | 10 | 0.0 | 0.0 | 0.00 | 0.00 | 0.00 | 16 | 989.7 | |
| 20260905151043 | 10 | 0.0 | 0.0 | 0.00 | 0.00 | 0.00 | 17 | 989.6 | |
| 20260905150044 | 10 | 0.0 | 0.0 | 0.00 | 0.00 | 0.00 | 17 | 989.8 | |
| 20260905145045 | 10 | 0.0 | 0.0 | 0.00 | 0.00 | 0.00 | 17 | 989.8 | |
| 20260905144044 | 10 | 0.0 | 0.0 | 0.00 | 0.00 | 0.00 | 17 | 989.8 | |
| 20260905143044 | 10 | 0.0 | 0.0 | 0.00 | 0.00 | 0.00 | 17 | 989.8 | |
| 20260905142044 | 10 | 0.0 | 0.0 | 0.00 | 0.00 | 0.00 | 16 | 989.9 | |
| 20260905141044 | 10 | 0.0 | 0.0 | 0.00 | 0.00 | 0.00 | 17 | 989.9 | |
| 20260905140044 | 10 | 0.0 | 0.0 | 0.00 | 0.00 | 0.00 | 18 | 989.9 | |
| 20260905135045 | 10 | 0.0 | 0.0 | 0.00 | 0.00 | 0.00 | 17 | 990.0 | |
| 20260905134044 | 10 | 0.0 | 0.0 | 0.00 | 0.00 | 0.00 | 18 | 990.1 | |
| 20260905132044 | 10 | 0.0 | 0.0 | 0.00 | 0.00 | 0.00 | 17 | 990.3 | |
| 20260905131044 | 10 | 0.0 | 0.0 | 0.00 | 0.00 | 0.00 | 17 | 990.5 | |
| 20260905130044 | 10 | 0.0 | 0.0 | 0.00 | 0.00 | 0.00 | 17 | 990.6 | |
| 20260905125044 | 10 | 0.0 | 0.0 | 0.00 | 0.00 | 0.00 | 18 | 990.6 | |
| 20260905124044 | 10 | 0.0 | 0.0 | 0.00 | 0.00 | 0.00 | 18 | 990.8 | |
| 20260905123043 | 10 | 0.0 | 0.0 | 0.00 | 0.00 | 0.00 | 19 | 990.8 | |
| 20260905122043 | 10 | 0.0 | 0.0 | 0.00 | 0.00 | 0.00 | 19 | 991.0 | |
| 20260905121043 | 10 | 0.0 | 0.0 | 0.00 | 0.00 | 0.00 | 19 | 991.1 | |
| 20260905115044 | 99 | 0.0 | 0.0 | 0.00 | 0.00 | 0.00 | 21 | 991.4 | |
| 20260905114043 | 10 | 0.0 | 0.0 | 0.00 | 0.00 | 0.00 | 20 | 991.5 | |
| 20260905113043 | 10 | 0.0 | 0.0 | 0.00 | 0.00 | 0.00 | 21 | 991.6 | |
| 20260905112043 | 98 | 0.0 | 0.0 | 0.00 | 0.00 | 0.00 | 22 | 991.6 | |
| 20260905111044 | 99 | 0.0 | 0.0 | 0.00 | 0.00 | 0.00 | 22 | 991.7 | |
| 20260905105043 | 99 | 0.0 | 0.0 | 0.00 | 0.00 | 0.00 | 22 | 991.8 | |
| 20260905103043 | 94 | 0.0 | 0.0 | 0.00 | 0.00 | 0.00 | 25 | 992.0 | |
| 20260905102044 | 91 | 0.0 | 0.0 | 0.00 | 0.00 | 0.00 | 27 | 992.0 | |
| 20260905101043 | 90 | 0.0 | 0.0 | 0.00 | 0.00 | 0.00 | 28 | 992.0 | |
| 20260905100044 | 89 | 0.0 | 0.0 | 0.00 | 0.00 | 0.00 | 29 | 992.1 | |
| 20260905092043 | 86 | 0.0 | 0.0 | 0.00 | 0.00 | 0.00 | 31 | 992.4 | |
| 20260905091043 | 85 | 0.0 | 0.0 | 0.00 | 0.00 | 0.00 | 33 | 992.5 | |
| 20260905090043 | 84 | 0.0 | 0.0 | 0.00 | 0.00 | 0.00 | 33 | 992.7 | |
| 20260905084044 | 83 | 0.0 | 0.0 | 0.00 | 0.00 | 0.00 | 35 | 992.6 | |
| 20260905083043 | 83 | 0.0 | 0.0 | 0.00 | 0.00 | 0.00 | 36 | 992.8 | |
| 20260905082044 | 82 | 0.0 | 0.0 | 0.00 | 0.00 | 0.00 | 37 | 992.7 | |
| 20260905081043 | 82 | 0.0 | 0.0 | 0.00 | 0.00 | 0.00 | 39 | 992.8 | |
| 20260905080043 | 81 | 0.0 | 0.0 | 0.00 | 0.00 | 0.00 | 37 | 992.8 | |
| 20260905074044 | 79 | 0.0 | 0.0 | 0.00 | 0.00 | 0.00 | 39 | 992.8 | |
| 20260905073043 | 79 | 0.0 | 0.0 | 0.00 | 0.00 | 0.00 | 40 | 992.8 | |
| 20260905072043 | 78 | 0.0 | 0.0 | 0.00 | 0.00 | 0.00 | 41 | 992.9 | |
| 20260905071045 | 77 | 0.0 | 0.0 | 0.00 | 0.00 | 0.00 | 42 | 992.9 | |
| 20260905065044 | 75 | 0.0 | 0.0 | 0.00 | 0.00 | 0.00 | 44 | 992.9 | |
| 20260905064044 | 75 | 0.0 | 0.0 | 0.00 | 0.00 | 0.00 | 45 | 993.0 | |
| 20260905063043 | 74 | 0.0 | 0.0 | 0.00 | 0.00 | 0.00 | 46 | 993.0 | |
| 20260905062043 | 73 | 0.0 | 0.0 | 0.00 | 0.00 | 0.00 | 47 | 992.9 | |
| 20260905061043 | 72 | 0.0 | 0.0 | 0.00 | 0.00 | 0.00 | 50 | 992.9 |